Current weather by "City, St" or "zip code"  
 

Current Conditions: Marysville, Beale Air Force Base, CA

Fair with Haze


58.0 F

Last Updated on May 21 2022, 1:58 am PDT
Humidity: 42%
Wind Speed: NW 5.8 mph
Barometer 29.78 in
Dewpoint: 35.2 F
Visibility: 2.00 mi
Precip: --
Heat Index: NA
Wind Chill: 57 F
Current conditions at:

Marysville, Beale Air Force Base, CA (KBAB)

Lat: 39.13333 Lon: 121.43333

Local Radar Image active severe weather and emergency alerts image image weather storm and storm spotter reports image weather observation monitoring service image
Local
Radar
Active
Alerts
Storm Reports Obs
Monitoring

Sign-up For Email & Text Message Weather Alert Notification Services



Advertise Here

Observation History for Marysville, Beale Air Force Base, CA


Time Wind
(mph)
Vis
(mi)
Weather Precip (in) Temperature (F) Relative
Humidity
Wind
Chill
(F)
Heat
Index
(F)
Pressure
Air Dwpt altimeter
(in)
sea level
(mb)
Rmks
1:58 am PDT NW 5.8 2.00 Fair with Haze -- 58.0 35.2 42% 57 NA 29.78 1008.7
12:58 am PDT N 8.1 6.00 Fair with Haze -- 61.0 31.3 33% 60 NA 29.77 1008.3
11:58 pm PDT N 6.9 4.00 Fair with Haze -- 62.0 27.9 27% 62 NA 29.76 1008.0
10:58 pm PDT N 4.6 9.00 Fair -- 63.0 23.5 22% 64 NA 29.76 1008.0
9:58 pm PDT N 10.4 10.00 Fair -- 67.0 25.0 20% NA NA 29.76 1008.0
8:58 pm PDT N 12.7 3.00 Fair with Haze -- 69.0 25.3 19% NA NA 29.74 1007.3
7:58 pm PDT N 12.7 10.00 Fair -- 76.0 21.7 13% NA NA 29.72 1006.7
6:58 pm PDT N 19.6 10.00 Fair -- 81.0 19.4 10% NA 79 29.71 1006.3
5:58 pm PDT NW 21.9 G 27.6 10.00 Fair and Breezy -- 83.0 20.5 10% NA 80 29.70 1006.0
4:58 pm PDT NW 20.7 G 27.6 10.00 Fair and Breezy -- 82.0 17.8 9% NA 80 29.70 1006.0
2:58 pm PDT NW 20.7 G 25.3 10.00 Fair and Breezy -- 83.0 18.1 9% NA 80 29.72 1006.6
1:58 pm PDT NW 25.3 G 32.2 10.00 Fair and Breezy -- 81.0 23.4 12% NA 79 29.73 1007.0
12:58 pm PDT NW 24.2 10.00 Fair and Breezy -- 77.0 26.1 15% NA NA 29.75 1007.7
9:58 pm PDT N 19.6 G 27.6 10.00 Fair -- 82.0 50.0 33% NA 81 29.93 1013.7
11:58 am PDT NW 26.5 G 32.2 10.00 Fair and Windy -- 75.0 27.1 17% NA NA 29.77 1008.3
7:58 am PDT NW 23.0 G 28.8 10.00 Fair and Breezy -- 60.0 30.4 33% 56 NA 29.81 1009.7
6:58 am PDT N 23.0 G 29.9 10.00 Fair and Breezy -- 56.0 31.1 38% 51 NA 29.80 1009.4
4:58 am PDT NW 23.0 G 28.8 10.00 Fair and Breezy -- 56.0 31.6 39% 51 NA 29.78 1008.7
2:58 am PDT NW 21.9 G 31.1 10.00 Fair and Breezy -- 59.0 29.3 32% 55 NA 29.79 1009.0

Regional Weather Observation


Marysville, Beale Air Force Base, CA (KBAB)

Fair with Haze
58.0 F

Oroville Municipal Airport, CA (KOVE)

Fair
62.0 F

Nevada County Air Park, CA (KGOO)

A Few Clouds
59.0 F

Chico Municipal Airport, CA (KCIC)

Fair
59.0 F

Lincoln Regional Karl Harder Field, CA (KLHM)

Fair
46.0 F

Auburn Municipal Airport, CA (KAUN)

Fair
63.0 F

Advertise Here


Advertise Here